Regional Weather Roundup
Issued by NWS Sioux Falls, SD

Home | Current Version | Previous Version | Text Only | Print | Product List | Glossary On
Versions: 1 2 3 4 5 6 7 8 9 10 11 12 13 14 15 16 17 18 19 20 21 22 23 24 25 26 27 28 29 30 31 32 33 34 35 36 37 38 39 40 41 42 43 44 45 46 47 48 49 50
000
ASUS43 KFSD 270810
RWRFSD

WEATHER ROUNDUP FOR SE SOUTH DAKOTA/SW MINNESOTA/NW IOWA
NATIONAL WEATHER SERVICE SIOUX FALLS SD
200 AM CST MON FEB 27 2017

NOTE: "FAIR" INDICATES FEW OR NO CLOUDS BELOW 12,000 FEET WITH NO
SIGNIFICANT WEATHER AND OR OBSTRUCTIONS TO VISIBILITY.


SDZ038>040-050-052>070-270900-
SOUTHEAST SOUTH DAKOTA

CITY           SKY/WX    TMP DP  RH WIND       PRES   REMARKS
BROOKINGS      CLEAR     26  21  81 S9        29.86S WCI  17
CHAMBERLAIN    CLEAR     25  19  80 CALM      29.86S
HURON          CLEAR     22  19  89 CALM      29.85S
MADISON        FAIR      25  23  93 SW12      29.87S WCI  14
MITCHELL       PTCLDY    26  19  74 S12       29.88F WCI  16
SIOUX FALLS    CLEAR     27  20  75 SW8       29.92R WCI  19
WINNER         FAIR      24  12  60 SW14      29.83F WCI  12
YANKTON        CLEAR     21  16  79 CALM      29.93S
$$

MNZ071-072-080-081-089-090-097-098-270900-
SOUTHWEST MINNESOTA

CITY           SKY/WX    TMP DP  RH WIND       PRES   REMARKS
FAIRMONT       CLEAR     17  14  88 S6        29.96S WCI   9
JACKSON        CLEAR     25  21  86 SW7       29.94R WCI  17
LUVERNE        CLEAR     25  21  86 CALM      29.93R
MARSHALL       CLOUDY    31  23  72 SW15      29.88S WCI  20
MONTEVIDEO     CLOUDY    27  23  86 S3        29.90F
PIPESTONE      CLEAR     27  19  74 SW12      29.89R WCI  16
REDWOOD FALLS  PTCLDY    29  23  78 S9        29.90S WCI  20
TRACY          PTCLDY    31  24  77 SW16      29.89S WCI  20
WINDOM         CLEAR     28  25  86 S9        29.92S WCI  20
WORTHINGTON    CLEAR     27  22  81 SW15      29.92S WCI  15
$$

IAZ001>003-012>014-020>022-031-032-NEZ013-014-SDZ071-270900-
NORTHWEST IOWA

CITY           SKY/WX    TMP DP  RH WIND       PRES   REMARKS
CHEROKEE         N/A     13  12  96 CALM      29.98S FOG
DENISON        CLEAR     23  21  93 CALM      29.98S
ESTHERVILLE    CLEAR     21  17  84 S9        29.95S WCI  11
LE MARS        CLEAR     21  19  93 S5        29.97S WCI  15
SHELDON        CLEAR     25  25 100 S8        29.93S WCI  16
SIOUX CITY     CLEAR     19  15  84 E9        29.96F WCI   8
SPENCER        CLEAR     20  15  81 S8        29.95F WCI  10
STORM LAKE     CLEAR     19  18  93 S8        29.97S WCI   9
$$

ABBREVIATIONS USED IN REMARKS
   TC - TEMPERATURE IN CELSIUS
  WCI - WIND CHILL INDEX
   HX - HEAT INDEX
  VSB - VISIBILITY




USA.gov is the U.S. government's official web portal to all federal, state and local government web resources and services.